Little Rock AFB, AR

8:05 PM CDT on May 23, 2017 (GMT -0500)
Little Rock Air Force Base

Weather History for KLRF - February, 2013

Change the Weather History Date:

Saturday, February 9, 2013

  Actual Average Record
Temperature  
Mean Temperature 38 °F -  
Max Temperature 45 °F 49 °F 61 °F (2015)
Min Temperature 32 °F 27 °F 24 °F (2016)
Degree Days  
Heating Degree Days 26    
Moisture  
Dew Point 35 °F    
Average Humidity 82    
Maximum Humidity 100    
Minimum Humidity 66    
Precipitation  
Precipitation 0.02 in - - ()
Sea Level Pressure  
Sea Level Pressure 30.18 in    
Wind  
Wind Speed 7 mph (ENE)    
Max Wind Speed 9 mph    
Max Gust Speed -    
Visibility 10 miles    
Events Rain    
Averages and records for this station are not official NWS values.
T = Trace of Precipitation, MM = Missing Value Source: NWS Daily Summary

Daily Weather History Graph

Daily Weather History Graph

Search for Another Location

Airport or City:

Trip Planner

Search our weather history database for the weather conditions in past years. The results will help you decide how hot, cold, wet, or windy it might be!

Date:

Astronomy

Feb. 09, 2013 Rise Set
Actual Time 7:00 AM CST 5:45 PM CST
Civil Twilight 6:34 AM CST 6:12 PM CST
Nautical Twilight 6:04 AM CST 6:41 PM CST
Astronomical Twilight 5:34 AM CST 7:11 PM CST
Moon 6:12 AM CST (2/9) 5:27 PM CST (2/9)
Length of Visible Light 11h 37m
Length of Day
10h 45m
Waning Crescent, 0% of the Moon is Illuminated
Feb 9
Waning Crescent
Feb 10
New
Feb 17
First Quarter
Feb 25
Full
Mar 4
Last Quarter

Hourly Weather History & Observations

Time (CST) Temp. Windchill Dew Point Humidity Pressure Visibility Wind Dir Wind Speed Gust Speed Precip Events Conditions
12:06 AM 35.6 °F 29.2 °F 32.0 °F 87% 30.30 in 10.0 mi ENE 8.1 mph - N/A   Scattered Clouds
12:10 AM 35.6 °F 30.7 °F 32.0 °F 87% 30.30 in 10.0 mi ENE 5.8 mph - N/A   Mostly Cloudy
12:49 AM 37.4 °F 30.8 °F 32.0 °F 81% 30.30 in 10.0 mi ENE 9.2 mph - N/A   Overcast
12:58 AM 36.9 °F 30.1 °F 31.6 °F 81% 30.32 in 10.0 mi ENE 9.2 mph - N/A   Overcast
1:28 AM 37.4 °F 32.1 °F 32.0 °F 81% 30.30 in 10.0 mi East 6.9 mph - N/A   Overcast
1:43 AM 35.6 °F 31.7 °F 32.0 °F 87% 30.31 in 10.0 mi ENE 4.6 mph - N/A   Scattered Clouds
1:53 AM 35.6 °F 32.8 °F 32.0 °F 87% 30.31 in 10.0 mi NE 3.5 mph - N/A   Partly Cloudy
2:53 AM 32.0 °F - 32.0 °F 100% 30.31 in 10.0 mi Calm Calm - N/A   Clear
3:53 AM 32.0 °F - 28.4 °F 87% 30.30 in 9.0 mi North 1.2 mph - N/A   Clear
4:53 AM 32.0 °F 24.8 °F 32.0 °F 100% 30.28 in 9.0 mi NE 8.1 mph - N/A   Clear
5:53 AM 32.0 °F 25.6 °F 32.0 °F 100% 30.27 in 10.0 mi ENE 6.9 mph - N/A   Clear
6:53 AM 32.0 °F 25.6 °F 32.0 °F 100% 30.30 in 10.0 mi NE 6.9 mph - N/A   Clear
7:53 AM 32.0 °F 26.4 °F 32.0 °F 100% 30.30 in 10.0 mi ENE 5.8 mph - N/A   Clear
8:53 AM 35.6 °F 28.6 °F 32.0 °F 87% 30.31 in 10.0 mi ENE 9.2 mph - N/A   Mostly Cloudy
9:04 AM 37.4 °F 30.8 °F 32.0 °F 81% 30.31 in 10.0 mi ENE 9.2 mph - N/A   Mostly Cloudy
9:34 AM 37.4 °F 31.4 °F 32.0 °F 81% 30.31 in 10.0 mi East 8.1 mph - N/A   Mostly Cloudy
9:41 AM 37.4 °F 32.1 °F 32.0 °F 81% 30.30 in 10.0 mi East 6.9 mph - N/A   Mostly Cloudy
9:49 AM 39.2 °F 33.6 °F 32.0 °F 75% 30.31 in 10.0 mi East 8.1 mph - N/A   Overcast
9:53 AM 39.2 °F 34.2 °F 32.0 °F 75% 30.31 in 10.0 mi East 6.9 mph - N/A   Mostly Cloudy
9:59 AM 39.2 °F 33.6 °F 32.0 °F 75% 30.31 in 10.0 mi East 8.1 mph - N/A   Mostly Cloudy
10:05 AM 39.2 °F 34.2 °F 32.0 °F 75% 30.31 in 10.0 mi East 6.9 mph - N/A   Overcast
10:58 AM 40.6 °F 34.8 °F 33.4 °F 75% 30.31 in 10.0 mi ENE 9.2 mph - N/A   Mostly Cloudy
11:23 AM 42.8 °F 37.5 °F 32.0 °F 66% 30.26 in 10.0 mi East 9.2 mph - N/A   Overcast
11:58 AM 43.3 °F 39.2 °F 34.5 °F 71% 30.25 in 10.0 mi Variable 6.9 mph - N/A   Scattered Clouds
12:58 PM 44.8 °F 39.9 °F 34.9 °F 68% 30.21 in 10.0 mi ENE 9.2 mph - N/A   Clear
1:58 PM 45.3 °F 40.6 °F 34.5 °F 66% 30.17 in 10.0 mi East 9.2 mph - N/A   Partly Cloudy
2:58 PM 45.3 °F 42.3 °F 34.7 °F 66% 30.14 in 10.0 mi East 5.8 mph - N/A   Clear
2:59 PM 44.6 °F 40.7 °F 35.6 °F 71% 30.14 in 10.0 mi ENE 6.9 mph - N/A   Light Drizzle
3:58 PM 44.4 °F 39.5 °F 37.0 °F 75% 30.10 in 10.0 mi East 9.2 mph - 0.00 in Rain Light Rain
4:03 PM 44.6 °F 41.4 °F 37.4 °F 76% 30.10 in 10.0 mi East 5.8 mph - N/A   Partly Cloudy
4:58 PM 45.7 °F 41.5 °F 36.0 °F 69% 30.10 in 10.0 mi East 8.1 mph - 0.00 in   Scattered Clouds
5:58 PM 45.1 °F 40.8 °F 36.1 °F 71% 30.06 in 10.0 mi ENE 8.1 mph - N/A   Overcast
6:58 PM 44.8 °F 42.4 °F 36.0 °F 71% 30.07 in 10.0 mi East 4.6 mph - N/A   Mostly Cloudy
7:28 PM 44.6 °F 40.7 °F 37.4 °F 76% 30.06 in 10.0 mi East 6.9 mph - N/A   Overcast
7:58 PM 44.8 °F 41.0 °F 36.5 °F 73% 30.06 in 10.0 mi East 6.9 mph - N/A   Overcast
8:13 PM 44.6 °F 40.7 °F 35.6 °F 71% 30.06 in 10.0 mi East 6.9 mph - N/A   Light Drizzle
8:23 PM 44.6 °F 42.2 °F 37.4 °F 76% 30.06 in 10.0 mi East 4.6 mph - N/A Rain Light Rain
8:52 PM 44.6 °F 42.2 °F 39.2 °F 81% 30.06 in 10.0 mi East 4.6 mph - N/A   Mostly Cloudy
8:58 PM 43.9 °F 41.3 °F 38.5 °F 81% 30.06 in 10.0 mi East 4.6 mph - 0.01 in   Scattered Clouds
9:34 PM 42.8 °F 41.1 °F 39.2 °F 87% 30.05 in 10.0 mi East 3.5 mph - N/A Rain Light Rain
9:58 PM 43.7 °F 41.1 °F 39.7 °F 86% 30.02 in 10.0 mi NE 4.6 mph - 0.00 in Rain Light Rain
10:23 PM 42.8 °F 41.1 °F 41.0 °F 93% 30.02 in 10.0 mi East 3.5 mph - N/A   Light Drizzle
10:25 PM 42.8 °F 41.1 °F 41.0 °F 93% 30.02 in 10.0 mi East 3.5 mph - N/A   Mostly Cloudy
10:27 PM 42.8 °F 40.1 °F 41.0 °F 93% 30.01 in 10.0 mi East 4.6 mph - N/A Rain Light Rain
10:41 PM 42.8 °F 40.1 °F 41.0 °F 93% 30.00 in 10.0 mi East 4.6 mph - N/A   Mostly Cloudy
10:58 PM 43.5 °F 40.9 °F 40.1 °F 88% 30.01 in 10.0 mi ENE 4.6 mph - 0.01 in   Overcast
11:06 PM 44.6 °F 42.2 °F 41.0 °F 87% 30.00 in 10.0 mi NE 4.6 mph - N/A Rain Light Rain
11:16 PM 44.6 °F 43.1 °F 41.0 °F 87% 30.00 in 10.0 mi ENE 3.5 mph - N/A   Overcast
11:58 PM 44.4 °F 40.5 °F 40.3 °F 85% 29.99 in 10.0 mi East 6.9 mph - 0.00 in   Overcast